Skip Page Navigation
NASA JPL Caltech
NASA Logo - Jet Propulsion Laboratory + View the NASA Portal
+ Center for Near-Earth Object Studies
JPL Home Earth Solar System Stars & Galaxies Technology
JPL Solar System Dynamics
BODIES ORBITS EPHEMERIDES TOOLS PHYSICAL DATA DISCOVERY FAQ SITE MAP
IMPORTANT: The SSD Announcement email list is now available. Major changes are coming in the near future, including possible hostname and/or URL changes. To be notified of such changes, subscribe to this email list.

Please visit this page for more details.


JPL Small-Body Database Browser
Search: [ help ]  
136699 (1995 SD71)
Classification: Main-belt Asteroid          SPK-ID: 2136699
Ephemeris | Orbit Diagram | Orbital Elements | Mission Design | Physical Parameters | Discovery Circumstances | Close-Approach Data ]

[ show orbit diagram ]
Orbital Elements at Epoch 2458600.5 (2019-Apr-27.0) TDB
Reference: JPL 21 (heliocentric ecliptic J2000)
 Element Value Uncertainty (1-sigma)   Units 
e .164716211842761 6.4945e-08  
a 3.114211384042051 2.4748e-08 au
q 2.601250281985042 2.0867e-07 au
i 17.08125739315281 6.6199e-06 deg
node 17.56430334890832 1.8267e-05 deg
peri 125.6934665679709 2.7887e-05 deg
M 359.8858149509027 1.7484e-05 deg
tp 2458601.136688933008
(2019-Apr-27.63668893)
9.7491e-05 TDB
period 2007.338243447802
5.50
2.3928e-05
6.551e-08
d
yr
n .1793419724727928 2.1378e-09 deg/d
Q 3.627172486099059 2.8825e-08 au
  Orbit Determination Parameters
   # obs. used (total)      674  
   data-arc span      8620 days (23.60 yr)  
   first obs. used      1995-09-18  
   last obs. used      2019-04-25  
   planetary ephem.      DE431  
   SB-pert. ephem.      SB431-N16  
   condition code      0  
   norm. resid. RMS      .58387  
   source      ORB  
   producer      Otto Matic  
   solution date      2019-Jul-13 09:48:50  

Additional Information
 Earth MOID = 1.65083 au 
 Jupiter MOID = 1.49181 au 
 T_jup = 3.130 
[ show covariance matrix ]

Ephemeris | Orbit Diagram | Orbital Elements | Mission Design | Physical Parameters | Discovery Circumstances | Close-Approach Data ]

Physical Parameter Table
Parameter Symbol Value Units Sigma Reference Notes
absolute magnitude H 14.3   n/a MPO436674  

136699 (1995 SD71)          Discovered 1995-Sep-18 by Spacewatch at Kitt Peak
Reference: 20061205/Numbers.arcLast Updated: 2006-12-13

[ show close-approach data ]
Alternate Designations
 1995 SD71 = 1995 UL46 
Ephemeris | Orbit Diagram | Orbital Elements | Mission Design | Physical Parameters | Discovery Circumstances | Close-Approach Data ]
ABOUT SSD CREDITS/AWARDS PRIVACY/COPYRIGHT GLOSSARY LINKS
FirstGov
(server date/time)  
NASA Home Page
Site Manager:   Ryan S. Park
Webmaster  Alan B. Chamberlin